EW1036 Weather Reports


Display with metric or nautical units.
time (UTC)temp
F
wind
direction
speed
MPH
gust
MPH
rain 1hr
in
rain 24hr
in
rain mn
in
humidity
%
barometer
mb
20260509160532 69 0 0.0 1.0 0.00 0.00 0.00 83 1013.0
20260509160044 68 0 0.0 2.0 0.00 0.00 0.00 85 1013.0
20260509155533 68 0 0.0 2.0 0.00 0.00 0.00 82 1013.1
20260509155034 67 0 0.0 0.0 0.00 0.00 0.00 84 1013.4
20260509154541 67 0 0.0 0.0 0.00 0.00 0.00 84 1013.4
20260509154032 67 0 0.0 0.0 0.00 0.00 0.00 85 1013.5
20260509153531 67 0 0.0 1.0 0.00 0.00 0.00 88 1013.7
20260509153045 67 0 0.0 1.0 0.00 0.00 0.00 89 1013.7
20260509152531 67 0 0.0 1.0 0.00 0.00 0.00 89 1014.0
20260509152031 67 0 0.0 0.0 0.00 0.00 0.00 89 1014.1
20260509151543 67 0 0.0 0.0 0.00 0.00 0.00 89 1014.1
20260509151032 67 0 0.0 0.0 0.00 0.00 0.00 89 1014.4
20260509150533 66 0 0.0 0.0 0.00 0.00 0.00 89 1014.5
20260509150042 66 0 0.0 0.0 0.00 0.00 0.00 89 1014.4
20260509145533 66 0 0.0 0.0 0.00 0.00 0.00 89 1014.4
20260509145032 66 0 0.0 0.0 0.00 0.00 0.00 89 1014.4
20260509144544 66 0 0.0 0.0 0.00 0.00 0.00 89 1014.5
20260509144032 66 0 0.0 0.0 0.00 0.00 0.00 89 1014.5
20260509143534 66 0 0.0 0.0 0.00 0.00 0.00 89 1014.6
20260509143047 66 0 0.0 0.0 0.00 0.00 0.00 89 1014.5
20260509142533 66 0 0.0 0.0 0.00 0.00 0.00 89 1014.4
20260509142034 66 0 0.0 0.0 0.00 0.00 0.00 89 1014.4
20260509141542 66 0 0.0 0.0 0.00 0.00 0.00 90 1014.1
20260509141032 66 0 0.0 0.0 0.00 0.00 0.00 90 1014.1
20260509140531 66 0 0.0 0.0 0.00 0.00 0.00 90 1013.9
20260509140045 65 0 0.0 0.0 0.00 0.00 0.00 90 1014.0
20260509135531 65 0 0.0 0.0 0.00 0.00 0.00 89 1014.2
20260509135030 65 0 0.0 0.0 0.00 0.00 0.00 89 1014.1
20260509134547 65 0 0.0 0.0 0.00 0.00 0.00 89 1014.2
20260509134031 65 0 0.0 0.0 0.00 0.00 0.00 89 1014.0
20260509133533 65 0 0.0 0.0 0.00 0.00 0.00 90 1014.1
20260509133048 65 0 0.0 0.0 0.00 0.00 0.00 90 1014.3
20260509132532 65 0 0.0 0.0 0.00 0.00 0.00 91 1014.4
20260509132031 64 0 0.0 0.0 0.00 0.00 0.00 91 1014.3
20260509131548 64 0 0.0 2.0 0.00 0.00 0.00 91 1014.3
20260509131032 64 0 0.0 2.0 0.00 0.00 0.00 91 1014.2
20260509130531 63 0 0.0 0.0 0.00 0.00 0.00 92 1014.2
20260509130057 63 0 0.0 0.0 0.00 0.00 0.00 91 1014.2
20260509125533 63 0 0.0 0.0 0.00 0.00 0.00 91 1014.1
20260509125031 62 0 0.0 0.0 0.00 0.00 0.00 91 1014.2
20260509124546 62 0 0.0 3.0 0.00 0.00 0.00 91 1014.1
20260509124033 62 0 0.0 3.0 0.00 0.00 0.00 92 1014.0
20260509123533 61 67 1.0 3.0 0.00 0.00 0.00 92 1014.0
20260509123049 61 0 0.0 0.0 0.00 0.00 0.00 93 1014.3
20260509122533 61 0 0.0 0.0 0.00 0.00 0.00 93 1014.4
20260509122033 61 0 0.0 1.0 0.00 0.00 0.00 92 1014.5
20260509121545 60 0 0.0 2.0 0.00 0.00 0.00 93 1014.5
20260509121033 60 0 0.0 2.0 0.00 0.00 0.00 93 1014.4
20260509120532 60 0 0.0 2.0 0.00 0.00 0.00 93 1014.4
20260509120055 60 0 0.0 0.0 0.00 0.00 0.00 93 1014.5
20260509115533 60 0 0.0 2.0 0.00 0.00 0.00 94 1014.3
20260509115033 60 0 0.0 2.0 0.00 0.00 0.00 94 1014.3
20260509114544 59 0 0.0 2.0 0.00 0.00 0.00 94 1014.2
20260509114033 59 0 0.0 0.0 0.00 0.00 0.00 93 1014.2
20260509113533 59 0 0.0 0.0 0.00 0.00 0.00 93 1014.0
20260509113043 59 0 0.0 0.0 0.00 0.00 0.00 93 1013.9
20260509112536 59 0 0.0 0.0 0.00 0.00 0.00 93 1013.9
20260509112033 59 0 0.0 0.0 0.00 0.00 0.00 93 1013.7
20260509111541 58 0 0.0 0.0 0.00 0.00 0.00 93 1013.8
20260509111033 58 0 0.0 0.0 0.00 0.00 0.00 93 1014.0
20260509110533 58 0 0.0 0.0 0.00 0.00 0.00 93 1013.8
20260509110045 58 0 0.0 0.0 0.00 0.00 0.00 93 1013.8
20260509105533 58 0 0.0 0.0 0.00 0.00 0.00 93 1013.8
20260509105034 58 0 0.0 0.0 0.00 0.00 0.00 93 1013.9
20260509104543 58 0 0.0 0.0 0.00 0.00 0.00 93 1013.8
20260509104034 58 0 0.0 0.0 0.00 0.00 0.00 93 1013.9
20260509103532 58 0 0.0 0.0 0.00 0.00 0.00 93 1013.8
20260509103043 58 0 0.0 0.0 0.00 0.00 0.00 93 1013.7
20260509102534 58 0 0.0 0.0 0.00 0.00 0.00 93 1013.7
20260509102034 58 0 0.0 0.0 0.00 0.00 0.00 93 1013.6
20260509101544 58 0 0.0 0.0 0.00 0.00 0.00 93 1013.6
20260509101034 58 0 0.0 0.0 0.00 0.00 0.00 93 1013.5
20260509100533 58 0 0.0 0.0 0.00 0.00 0.00 92 1013.5
20260509100044 58 0 0.0 0.0 0.00 0.00 0.00 92 1013.6
20260509095534 58 0 0.0 0.0 0.00 0.00 0.00 92 1013.5
20260509095032 58 0 0.0 0.0 0.00 0.00 0.00 92 1013.7
20260509094545 58 0 0.0 0.0 0.00 0.00 0.00 92 1013.7
20260509094033 58 0 0.0 0.0 0.00 0.00 0.00 92 1013.9
20260509093533 58 0 0.0 0.0 0.00 0.00 0.00 92 1013.9
20260509093043 58 0 0.0 0.0 0.00 0.00 0.00 92 1013.8
20260509092535 58 0 0.0 0.0 0.00 0.00 0.00 92 1014.0
20260509092033 58 0 0.0 0.0 0.00 0.00 0.00 92 1013.9
20260509091541 59 0 0.0 0.0 0.00 0.00 0.00 92 1014.1
20260509091033 59 0 0.0 0.0 0.00 0.00 0.00 92 1014.0
20260509090534 59 0 0.0 0.0 0.00 0.00 0.00 92 1014.0
20260509090046 59 0 0.0 0.0 0.00 0.00 0.00 92 1014.0
20260509085533 59 0 0.0 0.0 0.00 0.00 0.00 92 1013.9
20260509085033 59 0 0.0 0.0 0.00 0.00 0.00 93 1014.0
20260509084542 59 0 0.0 0.0 0.00 0.00 0.00 93 1014.1
20260509084034 59 0 0.0 0.0 0.00 0.00 0.00 93 1014.0
20260509083532 59 0 0.0 0.0 0.00 0.00 0.00 93 1013.9
20260509083049 59 0 0.0 0.0 0.00 0.00 0.00 93 1014.0
20260509082533 59 0 0.0 0.0 0.00 0.00 0.00 93 1014.1
20260509082033 59 0 0.0 0.0 0.00 0.00 0.00 93 1014.1
20260509081549 59 0 0.0 0.0 0.00 0.00 0.00 92 1014.2
20260509081033 59 0 0.0 0.0 0.00 0.00 0.00 92 1014.3
20260509080532 59 0 0.0 0.0 0.00 0.00 0.00 92 1014.2
20260509080042 59 0 0.0 0.0 0.00 0.00 0.00 92 1014.3
20260509075533 59 0 0.0 0.0 0.00 0.01 0.00 92 1014.2
20260509075035 59 0 0.0 0.0 0.00 0.01 0.00 92 1014.3
20260509074541 59 0 0.0 0.0 0.00 0.01 0.00 92 1014.5
20260509074033 58 0 0.0 0.0 0.00 0.01 0.00 92 1014.7
20260509073534 58 0 0.0 0.0 0.00 0.01 0.00 92 1014.8
20260509073039 59 0 0.0 0.0 0.00 0.01 0.00 92 1014.7
20260509072533 59 0 0.0 0.0 0.00 0.01 0.00 92 1014.9
20260509072034 59 0 0.0 0.0 0.00 0.01 0.00 92 1014.9
20260509071547 59 0 0.0 0.0 0.00 0.01 0.00 92 1014.6
20260509071034 59 0 0.0 0.0 0.00 0.01 0.00 92 1014.6
20260509070533 59 0 0.0 0.0 0.00 0.01 0.00 92 1014.8
20260509070055 58 0 0.0 0.0 0.00 0.01 0.00 92 1014.8
20260509065532 58 0 0.0 0.0 0.00 0.01 0.00 92 1015.1
20260509065033 58 0 0.0 0.0 0.00 0.01 0.00 92 1014.9
20260509064549 58 0 0.0 0.0 0.00 0.01 0.00 92 1014.9
20260509064034 58 0 0.0 0.0 0.00 0.01 0.00 92 1014.9
20260509063532 58 0 0.0 0.0 0.00 0.01 0.00 91 1015.0
20260509063048 58 0 0.0 0.0 0.00 0.01 0.00 91 1015.1
20260509062532 58 0 0.0 0.0 0.00 0.01 0.00 91 1015.0
20260509062033 58 0 0.0 0.0 0.00 0.01 0.00 91 1015.0
20260509061541 58 0 0.0 0.0 0.00 0.01 0.00 91 1015.1
20260509061034 58 0 0.0 0.0 0.00 0.01 0.00 91 1015.1
20260509060533 58 0 0.0 0.0 0.00 0.01 0.00 91 1015.1
20260509060100 58 0 0.0 0.0 0.00 0.01 0.00 91 1015.2
20260509055533 58 0 0.0 0.0 0.00 0.01 0.00 91 1015.1
20260509055033 58 0 0.0 0.0 0.00 0.01 0.00 91 1015.3
20260509054548 58 0 0.0 0.0 0.00 0.01 0.00 91 1015.4
20260509054032 58 0 0.0 0.0 0.00 0.01 0.00 91 1015.5
20260509053533 58 0 0.0 0.0 0.00 0.01 0.00 90 1015.7
20260509053041 58 0 0.0 0.0 0.00 0.01 0.00 90 1015.7
20260509052537 58 0 0.0 0.0 0.00 0.01 0.00 90 1015.8
20260509052035 58 0 0.0 0.0 0.00 0.01 0.00 90 1015.8
20260509051541 59 0 0.0 0.0 0.00 0.01 0.00 90 1015.8
20260509051033 59 0 0.0 0.0 0.00 0.01 0.00 90 1015.6
20260509050533 59 0 0.0 0.0 0.00 0.01 0.00 90 1015.7
20260509050059 59 0 0.0 0.0 0.00 0.01 0.00 90 1015.6
20260509045534 59 0 0.0 0.0 0.00 0.03 0.00 90 1015.8
20260509045033 59 0 0.0 0.0 0.00 0.03 0.00 90 1015.7
20260509044556 59 0 0.0 0.0 0.00 0.03 0.00 90 1015.7
20260509044032 59 0 0.0 0.0 0.00 0.03 0.00 90 1015.8
20260509043532 59 0 0.0 0.0 0.00 0.03 0.00 90 1015.8
20260509043042 59 0 0.0 0.0 0.00 0.03 0.00 90 1015.8
20260509042533 59 0 0.0 0.0 0.00 0.03 0.00 90 1015.8
20260509042032 59 0 0.0 0.0 0.00 0.03 0.00 89 1015.9
20260509041542 59 0 0.0 0.0 0.00 0.03 0.00 89 1016.0
20260509041034 59 0 0.0 0.0 0.00 0.03 0.00 89 1016.0
20260509040532 59 0 0.0 0.0 0.00 0.03 0.00 88 1016.0
20260509040047 59 0 0.0 0.0 0.00 0.03 0.00 88 1016.1
20260509035532 59 0 0.0 0.0 0.00 0.16 0.03 88 1016.1
20260509035034 59 0 0.0 0.0 0.00 0.16 0.03 87 1016.3
20260509034543 60 0 0.0 0.0 0.00 0.16 0.03 87 1016.2
20260509034033 60 0 0.0 0.0 0.00 0.16 0.03 87 1016.4
20260509033533 60 0 0.0 0.0 0.00 0.16 0.03 87 1016.3
20260509033040 60 0 0.0 0.0 0.00 0.16 0.03 87 1016.4
20260509032535 60 0 0.0 0.0 0.00 0.16 0.03 87 1016.4
20260509032033 60 0 0.0 0.0 0.00 0.16 0.03 86 1016.5
20260509031548 60 0 0.0 0.0 0.00 0.16 0.03 86 1016.4
20260509031033 60 0 0.0 0.0 0.00 0.16 0.03 86 1016.4
20260509030533 60 0 0.0 0.0 0.00 0.16 0.03 86 1016.4
20260509030044 61 0 0.0 0.0 0.00 0.16 0.03 86 1016.4
20260509025532 61 0 0.0 0.0 0.00 0.16 0.03 86 1016.4
20260509025033 61 0 0.0 0.0 0.00 0.16 0.03 85 1016.3
20260509024541 61 0 0.0 0.0 0.00 0.16 0.03 85 1016.5
20260509024033 61 0 0.0 0.0 0.00 0.16 0.03 84 1016.5
20260509023534 61 0 0.0 0.0 0.00 0.16 0.03 84 1016.5
20260509023050 61 0 0.0 0.0 0.00 0.16 0.03 84 1016.6
20260509022533 61 0 0.0 0.0 0.00 0.16 0.03 84 1016.6
20260509022033 61 0 0.0 0.0 0.00 0.16 0.03 84 1016.7
20260509021543 61 0 0.0 0.0 0.00 0.16 0.03 84 1016.6
20260509021033 61 0 0.0 0.0 0.00 0.16 0.03 84 1016.6
20260509020533 61 0 0.0 0.0 0.00 0.16 0.03 83 1016.6
20260509020042 62 0 0.0 0.0 0.00 0.16 0.03 83 1016.6
20260509015534 62 0 0.0 0.0 0.00 0.16 0.03 83 1016.5
20260509015033 62 0 0.0 0.0 0.00 0.16 0.03 82 1016.3
20260509014544 62 0 0.0 0.0 0.00 0.16 0.03 81 1016.4
20260509014032 62 0 0.0 0.0 0.00 0.16 0.03 81 1016.4
20260509013533 62 0 0.0 0.0 0.00 0.16 0.03 81 1016.2
20260509013046 62 0 0.0 0.0 0.00 0.16 0.03 80 1016.2
20260509012532 62 0 0.0 0.0 0.00 0.16 0.03 80 1016.0
20260509012033 62 0 0.0 2.0 0.00 0.16 0.03 80 1016.1
20260509011546 62 0 0.0 2.0 0.00 0.16 0.03 79 1015.8
20260509011032 62 0 0.0 2.0 0.00 0.16 0.03 79 1015.7
20260509010533 62 142 0.0 2.0 0.00 0.16 0.03 79 1015.6
20260509010049 62 0 0.0 2.0 0.00 0.16 0.03 79 1015.5
20260509005533 62 0 0.0 2.0 0.00 0.16 0.03 79 1015.5
20260509005033 62 142 0.0 1.0 0.00 0.16 0.03 79 1015.6
20260509004544 62 0 0.0 2.0 0.00 0.16 0.03 78 1015.7
20260509004032 62 0 0.0 2.0 0.00 0.16 0.03 77 1015.7
20260509003534 63 0 0.0 0.0 0.00 0.16 0.03 77 1015.7
20260509003059 63 0 0.0 0.0 0.00 0.16 0.03 75 1015.7
20260509002534 63 0 0.0 0.0 0.00 0.16 0.03 75 1015.9
20260509002033 63 0 0.0 0.0 0.00 0.16 0.03 74 1015.9
20260509001547 64 0 0.0 0.0 0.00 0.16 0.03 73 1015.6
20260509001035 64 0 0.0 0.0 0.00 0.16 0.03 70 1015.7
20260509000532 65 0 0.0 0.0 0.00 0.16 0.03 72 1015.6
20260509000043 65 0 0.0 0.0 0.00 0.16 0.03 71 1015.7
20260508235534 65 0 0.0 0.0 0.00 0.16 0.03 70 1015.5
20260508235033 65 0 0.0 0.0 0.00 0.16 0.03 69 1015.4
20260508234550 66 0 0.0 0.0 0.00 0.16 0.03 69 1015.5
20260508234032 66 0 0.0 0.0 0.00 0.16 0.03 67 1015.4
20260508233533 66 0 0.0 0.0 0.00 0.16 0.03 66 1015.4
20260508233043 66 0 0.0 0.0 0.00 0.16 0.03 63 1015.5
20260508232533 67 0 0.0 2.0 0.00 0.16 0.03 62 1015.4
20260508232032 67 0 0.0 3.0 0.00 0.16 0.03 64 1015.5
20260508231549 67 0 0.0 3.0 0.00 0.16 0.03 62 1015.4
20260508231035 67 142 0.0 2.0 0.00 0.16 0.03 57 1015.3
20260508230533 67 0 0.0 2.0 0.00 0.16 0.03 62 1015.3
20260508225532 67 0 0.0 3.0 0.00 0.16 0.03 58 1015.1
20260508225032 68 142 0.0 3.0 0.00 0.16 0.03 57 1015.2
20260508224543 68 144 1.0 3.0 0.00 0.16 0.03 58 1015.1
20260508224035 68 148 0.0 3.0 0.00 0.16 0.03 58 1014.9
20260508223534 68 153 0.0 3.0 0.00 0.16 0.03 58 1015.1
20260508223043 68 0 0.0 2.0 0.00 0.16 0.03 59 1015.1
20260508222535 68 0 0.0 2.0 0.00 0.16 0.03 57 1015.0
20260508222033 68 178 0.0 2.0 0.00 0.16 0.03 60 1015.0
20260508221542 68 275 0.0 2.0 0.00 0.16 0.03 63 1014.9
20260508221033 68 0 0.0 2.0 0.00 0.16 0.03 62 1014.9
20260508220532 68 0 0.0 2.0 0.00 0.16 0.03 63 1014.9
20260508220044 68 0 0.0 2.0 0.00 0.16 0.03 63 1014.9
20260508215532 68 0 0.0 2.0 0.00 0.16 0.03 60 1014.9
20260508215032 68 0 0.0 3.0 0.00 0.16 0.03 61 1015.1
20260508214542 68 151 1.0 3.0 0.00 0.16 0.03 59 1015.1
20260508214032 68 0 0.0 3.0 0.00 0.16 0.03 59 1015.2
20260508213533 68 0 0.0 3.0 0.00 0.16 0.03 59 1015.1
20260508213044 68 152 0.0 2.0 0.00 0.16 0.03 60 1015.2
20260508212532 68 0 0.0 2.0 0.00 0.16 0.03 57 1015.3
20260508212031 69 0 0.0 3.0 0.00 0.16 0.03 57 1015.2
20260508211543 69 0 0.0 4.0 0.00 0.16 0.03 57 1015.2
20260508211037 69 153 0.0 4.0 0.00 0.16 0.03 56 1015.3
20260508210532 68 0 0.0 4.0 0.00 0.16 0.03 58 1015.2
20260508210050 69 163 0.0 4.0 0.00 0.16 0.03 57 1015.3
20260508205532 69 0 0.0 2.0 0.00 0.16 0.03 55 1015.2
20260508205032 69 0 0.0 2.0 0.00 0.16 0.03 53 1015.3
20260508204544 69 0 0.0 2.0 0.00 0.16 0.03 59 1015.3
20260508204033 68 0 0.0 2.0 0.00 0.16 0.03 53 1015.4
20260508203533 69 0 0.0 2.0 0.00 0.16 0.03 59 1015.4
20260508203049 68 160 0.0 2.0 0.00 0.16 0.03 51 1015.3
20260508202532 69 0 0.0 2.0 0.00 0.16 0.03 59 1015.3
20260508202032 68 0 0.0 2.0 0.00 0.16 0.03 48 1015.5
20260508201544 68 0 0.0 4.0 0.00 0.16 0.03 50 1015.6
20260508201032 68 161 0.0 4.0 0.00 0.16 0.03 59 1015.6
20260508200532 68 0 0.0 3.0 0.00 0.16 0.03 48 1015.5
20260508200045 68 157 0.0 3.0 0.00 0.16 0.03 56 1015.6
20260508195533 68 158 0.0 3.0 0.00 0.16 0.03 51 1015.7
20260508195032 68 159 1.0 3.0 0.00 0.16 0.03 49 1015.8
20260508194612 69 156 1.0 3.0 0.00 0.16 0.03 46 1015.7
20260508194033 68 0 0.0 2.0 0.00 0.16 0.03 45 1015.6
20260508193532 69 155 0.0 3.0 0.00 0.16 0.03 47 1015.6
20260508193048 69 151 1.0 3.0 0.00 0.16 0.03 49 1015.6
20260508192532 69 148 1.0 3.0 0.00 0.16 0.03 48 1015.8
20260508192032 69 0 1.0 3.0 0.00 0.16 0.03 45 1016.1
20260508191539 69 142 1.0 4.0 0.00 0.16 0.03 47 1016.2
20260508191035 69 143 1.0 4.0 0.00 0.16 0.03 50 1016.2
20260508190533 69 0 1.0 5.0 0.00 0.16 0.03 48 1016.3
20260508190045 68 0 1.0 5.0 0.00 0.16 0.03 49 1016.4
20260508185534 68 147 2.0 4.0 0.00 0.17 0.03 48 1016.4
20260508185033 69 156 2.0 4.0 0.00 0.17 0.03 52 1016.4
20260508184541 69 145 1.0 4.0 0.00 0.17 0.03 52 1016.4
20260508184032 70 165 2.0 4.0 0.00 0.17 0.03 50 1016.4
20260508183534 69 143 1.0 4.0 0.00 0.17 0.03 51 1016.4
20260508183048 70 128 0.0 4.0 0.00 0.17 0.03 54 1016.4
20260508182535 69 0 0.0 5.0 0.00 0.17 0.03 54 1016.4
20260508182032 69 75 1.0 5.0 0.00 0.17 0.03 51 1016.4
20260508181604 69 73 1.0 4.0 0.00 0.17 0.03 55 1016.5
20260508181034 69 0 1.0 5.0 0.00 0.17 0.03 54 1016.6
20260508180532 69 0 1.0 5.0 0.00 0.17 0.03 51 1016.6
20260508180045 69 74 0.0 7.0 0.00 0.17 0.03 51 1016.6
20260508175532 69 309 1.0 7.0 0.00 0.37 0.03 51 1016.7
20260508175032 69 0 1.0 4.0 0.00 0.37 0.03 48 1016.7
20260508174545 68 51 0.0 4.0 0.00 0.37 0.03 53 1016.7
20260508174032 68 76 0.0 3.0 0.00 0.37 0.03 53 1016.6
20260508173531 68 0 0.0 2.0 0.00 0.37 0.03 51 1016.7
20260508173048 68 190 0.0 3.0 0.00 0.37 0.03 54 1016.8
20260508172532 68 191 0.0 6.0 0.00 0.37 0.03 52 1016.8
20260508172031 68 0 1.0 6.0 0.00 0.37 0.03 52 1016.8
20260508171550 68 0 1.0 5.0 0.00 0.37 0.03 54 1016.8
20260508171031 68 320 2.0 5.0 0.00 0.37 0.03 55 1016.9
20260508170534 68 63 0.0 8.0 0.00 0.37 0.03 57 1017.0
20260508170050 67 0 2.0 8.0 0.00 0.37 0.03 59 1017.1
20260508165532 67 54 1.0 5.0 0.00 0.40 0.03 57 1017.1
20260508165033 68 0 1.0 6.0 0.00 0.40 0.03 59 1017.1
20260508164542 68 63 1.0 6.0 0.00 0.40 0.03 58 1017.2
20260508164032 68 67 0.0 5.0 0.00 0.40 0.03 61 1017.2
20260508163532 68 0 0.0 9.0 0.00 0.40 0.03 58 1017.2
20260508163044 67 0 0.0 9.0 0.00 0.40 0.03 61 1017.2
20260508162532 67 71 2.0 8.0 0.00 0.40 0.03 59 1017.2
20260508162033 66 0 0.0 9.0 0.00 0.40 0.03 64 1017.2
20260508161542 66 111 2.0 9.0 0.00 0.40 0.03 61 1017.3
20260508161034 66 63 0.0 7.0 0.00 0.40 0.03 65 1017.2